Decatur, AL

11:54 AM CDT on August 27, 2016 (GMT -0500)
Pryor Regional

Weather History for KDCU - April, 2014

Change the Weather History Date:

Friday, April 11, 2014

  Actual Average Record
Temperature  
Mean Temperature 63 °F -  
Max Temperature 77 °F 71 °F 87 °F (2001)
Min Temperature 51 °F 44 °F 28 °F (1973)
Degree Days  
Heating Degree Days 2    
Growing Degree Days 13 (Base 50)    
Moisture  
Dew Point 48 °F    
Average Humidity 58    
Maximum Humidity 87    
Minimum Humidity 37    
Precipitation  
Precipitation 0.00 in - - ()
Sea Level Pressure  
Sea Level Pressure 30.15 in    
Wind  
Wind Speed 9 mph (SSW)    
Max Wind Speed 13 mph    
Max Gust Speed 17 mph    
Visibility 10 miles    
Events Rain    
Averages and records for this station are not official NWS values.
T = Trace of Precipitation, MM = Missing Value Source: NWS Daily Summary

Daily Weather History Graph

Daily Weather History Graph

Search for Another Location

Airport or City:

Trip Planner

Search our weather history database for the weather conditions in past years. The results will help you decide how hot, cold, wet, or windy it might be!

Date:

Astronomy

Apr. 11, 2014 Rise Set
Actual Time 6:21 AM CDT 7:16 PM CDT
Civil Twilight 5:55 AM CDT 7:42 PM CDT
Nautical Twilight 5:25 AM CDT 8:13 PM CDT
Astronomical Twilight 4:53 AM CDT 8:44 PM CDT
Moon 4:04 PM CDT (4/11) 4:07 AM CDT (4/11)
Length of Visible Light 13h 46m
Length of Day
12h 55m
Waxing Gibbous, 87% of the Moon is Illuminated
Apr 11
Waxing Gibbous
Apr 15
Full
Apr 22
Last Quarter
Apr 29
New
May 6
First Quarter

Hourly Weather History & Observations

Time (CDT) Temp. Dew Point Humidity Pressure Visibility Wind Dir Wind Speed Gust Speed Precip Events Conditions
12:53 AM 57.9 °F 42.1 °F 56% 30.14 in 10.0 mi SSW 8.1 mph - N/A   Clear
1:53 AM 57.9 °F 43.0 °F 58% 30.12 in 10.0 mi South 10.4 mph - N/A   Clear
2:53 AM 57.9 °F 43.0 °F 58% 30.13 in 10.0 mi South 8.1 mph - N/A   Clear
3:53 AM 55.9 °F 44.1 °F 64% 30.14 in 10.0 mi SSW 6.9 mph - N/A   Clear
4:53 AM 55.0 °F 44.1 °F 67% 30.15 in 10.0 mi SSW 6.9 mph - N/A   Clear
5:53 AM 52.0 °F 45.0 °F 77% 30.16 in 10.0 mi South 6.9 mph - N/A   Clear
6:53 AM 51.1 °F 46.0 °F 83% 30.19 in 10.0 mi South 8.1 mph - N/A   Clear
7:53 AM 55.9 °F 48.0 °F 75% 30.19 in 10.0 mi South 11.5 mph - N/A   Clear
8:53 AM 59.0 °F 48.9 °F 69% 30.21 in 10.0 mi SSW 12.7 mph - N/A   Clear
9:53 AM 64.0 °F 50.0 °F 60% 30.22 in 10.0 mi SW 8.1 mph - N/A   Clear
10:53 AM 66.9 °F 50.0 °F 54% 30.21 in 10.0 mi SW 10.4 mph - N/A   Clear
11:53 AM 69.1 °F 48.9 °F 49% 30.19 in 10.0 mi SW 9.2 mph - N/A   Clear
12:53 PM 73.0 °F 48.0 °F 41% 30.16 in 10.0 mi SSW 10.4 mph 17.3 mph N/A   Clear
1:53 PM 73.9 °F 46.9 °F 38% 30.13 in 10.0 mi SSW 8.1 mph - N/A   Clear
2:53 PM 75.9 °F 48.0 °F 37% 30.10 in 10.0 mi WSW 6.9 mph - N/A   Clear
3:53 PM 75.0 °F 48.0 °F 38% 30.09 in 10.0 mi SW 6.9 mph - N/A   Clear
4:53 PM 75.0 °F 48.9 °F 40% 30.07 in 10.0 mi South 11.5 mph - N/A   Partly Cloudy
5:53 PM 73.9 °F 48.9 °F 41% 30.08 in 10.0 mi South 10.4 mph - N/A   Scattered Clouds
6:53 PM 71.1 °F 50.0 °F 47% 30.09 in 10.0 mi South 9.2 mph - N/A   Scattered Clouds
7:53 PM 66.9 °F 51.1 °F 57% 30.11 in 10.0 mi South 8.1 mph - 0.00 in Rain Light Rain
8:53 PM 68.0 °F 51.1 °F 55% 30.15 in 8.0 mi South 5.8 mph - N/A   Overcast
9:53 PM 64.9 °F 53.1 °F 65% 30.17 in 10.0 mi NE 10.4 mph - N/A   Overcast
10:53 PM 61.0 °F 53.1 °F 75% 30.15 in 10.0 mi NNE 10.4 mph - N/A   Partly Cloudy
11:53 PM 55.9 °F 52.0 °F 87% 30.14 in 10.0 mi SSE 4.6 mph - N/A   Clear